Lexington Weather

Lexington, Massachusetts, USA

51°F
10/17/2021 10:20pm 
  • Lexington Conditions: Clear
  • Temperature: 51.4°F / 10.8°CColder 1.1°F than last hour.
  • Dew Point: 46.8°FDecreased 0.3°Fsince last hour.
  • Relative Humidity: 84%Increased 2.0% since last hour.
  • Wind: Wind from SSE SSE 1 mph, 10-min avg: Calm, gust: 4 mph
  • Barometer: 29.68 in Steady
  • Visibility: 10 miles
  • Rain Today: 0.35 in
  •   

Regional Weather Roundup
for Boston / Norton, MA

        
000
ASUS41 KBOX 180204
RWRBOX

REGIONAL WEATHER ROUNDUP
NATIONAL WEATHER SERVICE BOSTON/NORTON MA
1000 PM EDT SUN OCT 17 2021

NOTE:  "FAIR" INDICATES FEW OR NO CLOUDS BELOW 12,000 FEET WITH NO 
SIGNIFICANT WEATHER AND/OR OBSTRUCTIONS TO VISIBILITY.

MAZALL-180300-
EASTERN MASSACHUSETTS
  
CITY           SKY/WX    TMP DP  RH WIND       PRES   REMARKS
BOSTON         PTCLDY    54  44  69 W17       29.72R                  
BEVERLY        CLEAR     52  44  74 W8        29.70S                  
LAWRENCE       MOCLDY    53  45  74 W8        29.73R                  
BEDFORD        CLEAR     50  45  83 W5        29.71S                  
BLUE HILL      NOT AVBL                                               
NORWOOD        CLEAR     52  45  77 W7        29.72S                  
MARSHFIELD     PTCLDY    52  46  82 VRB6      29.72S                  
PLYMOUTH       MOCLDY    53  46  77 W7        29.73R                  
TAUNTON        PTCLDY    51  45  79 SW6       29.74R                  
NEW BEDFORD    PTCLDY    55  46  71 W12       29.73R                  
$$

MAZALL-180300-
CAPE COD AND THE ISLANDS
  
CITY           SKY/WX    TMP DP  RH WIND       PRES   REMARKS
FALMOUTH       PTCLDY    55  46  71 NW14      29.73R                  
HYANNIS        CLEAR     54  47  77 W6        29.71S                  
CHATHAM        CLEAR     52  46  80 VRB5      29.72S                  
PROVINCETOWN   CLEAR     57  48  72 W18       29.72R                  
NANTUCKET      CLEAR     59  47  64 W12       29.72S                  
MARTHAS VNYRD  CLEAR     57  46  66 NW12      29.73S                  
$$
 
MAZALL-180300-
CENTRAL AND WESTERN MASSACHUSETTS
  
CITY           SKY/WX    TMP DP  RH WIND       PRES   REMARKS
WORCESTER      PTCLDY    48  44  86 W12       29.74R                  
FITCHBURG      PTCLDY    51  43  74 NW9       29.73S                  
ORANGE         PTCLDY    51  42  71 W8        29.75R                  
SPRINGFIELD    MOCLDY    53  40  63 W18       29.75S                  
WESTFIELD      MOCLDY    52  42  69 W8        29.77R                  
NORTH ADAMS    CLOUDY    51  42  71 W14       29.77R                  
PITTSFIELD     LGT RAIN  47  41  80 W9        29.77R                  
$$
 
RIZALL-180300-
RHODE ISLAND
  
CITY           SKY/WX    TMP DP  RH WIND       PRES   REMARKS
PROVIDENCE     PTCLDY    53  45  74 W9        29.76R                  
NEWPORT        NOT AVBL                                               
BLOCK ISLAND   PTCLDY    55  42  61 NW20G28   29.77S                  
SMITHFIELD     CLEAR     49  45  86 W6        29.75S                  
WESTERLY       PTCLDY    53  45  74 VRB3      29.77S                  
$$
 
CTZALL-180300-
CONNECTICUT
  
CITY           SKY/WX    TMP DP  RH WIND       PRES   REMARKS
BRADLEY INTL   MOCLDY    53  43  68 W10       29.78R                  
HARTFORD       CLOUDY    54  42  64 VRB5      29.79S                  
BRIDGEPORT     PTCLDY    53  44  71 W6        29.81R                  
DANBURY        CLEAR     48  44  86 W5        29.82R                  
GROTON         MOCLDY    53  43  68 NW13      29.78R                  
NEW HAVEN      MOCLDY    57  45  64 NW6       29.80S                  
CHESTER        MOCLDY    52  45  76 NW7       29.79S                  
MERIDEN        CLOUDY    54  42  64 CALM      29.80R                  
WILLIMANTIC    PTCLDY    50  45  83 W3        29.78R                  
OXFORD         PTCLDY    48  43  82 CALM      29.81R                  
$$

MEZ002-015-021-024-NHZ003-005-008-011-012-014-VTZ005-008-180300-
NORTHERN NEW ENGLAND
  
CITY           SKY/WX    TMP DP  RH WIND       PRES   REMARKS
PORTLAND ME    CLEAR     48  42  80 W3        29.68S                  
BANGOR ME      CLOUDY    52  44  74 W3        29.63S                  
CONCORD NH     PTCLDY    51  43  74 W5        29.71R                  
MANCHESTER NH  MOCLDY    52  44  74 SW3       29.70R                  
NASHUA NH      MOCLDY    51  48  89 VRB3      29.72S                  
PORTSMOUTH NH  PTCLDY    51  44  77 W3        29.70S                  
JAFFREY NH     MOCLDY    49  45  86 S5        29.73R                  
KEENE NH       CLOUDY    48  47  96 CALM      29.74R                  
BURLINGTON VT  LGT RAIN  52  44  74 W9        29.74R                  
MT. WASHINGTON FOG       28  28 100 NW38G45     N/A  VSB 1/16WCI  11  
$$

NYZ052-076-180300-
EASTERN NEW YORK
  
CITY           SKY/WX    TMP DP  RH WIND       PRES   REMARKS
ALBANY         CLOUDY    52  42  69 W13G22    29.80R                  
NEW YORK CITY  PTCLDY    57  41  55 W17G24    29.84R                  
$$
 
ANZALL-180300-
MARINE OBSERVATIONS
  
STATION/POSITION TIME  TEMP    WIND        PRES    VSBY  WAVE
                       AIR SEA DIR/SP/G                  HT/PER
                 (UTC) (F)     (DEG/KT/KT) (MB)    (MI)  (FT/S)
BOSTON BUOY      0140      63  280/ 17/ 21 1006.2R
BUZZARDS BAY     0100          300/ 21/ 23 1007.9R
NANTUCKET SOUND  0140   61 67  290/ 17/ 23 1006.2
MASS BAY-STELLWA 0104   58     290/ 16/ 19 1004.6R  1 7/8  2/ 6
ISLE OF SHOALS   0100   57     280/ 10/ 11 1004.7R
S OF BLOCK IS    0126      66                N/A           4/ 5
$$

......................KEY.........................
  SKY/WX - SKY CONDITION/PRESENT WEATHER
  TMP    - TEMPERATURE IN FAHRENHEIT
  DWPT   - DEWPOINT IN FAHRENHEIT
  RH     - RELATIVE HUMIDITY IN PERCENT
  WIND   - DIRECTION AND SPEED IN MPH
  PRES   - MEAN SEA LEVEL PRESSURE IN INCHES OF HG
  WCI    - WIND CHILL INDEX
  VSB    - VISIBILITY IN MILES
  HX     - HEAT INDEX
  TC     - TEMPERATURE IN CELSIUS
  VRB    - VARIABLE WIND DIRECTION
  N/A    - NOT AVAILABLE
  
      

Other recent Regional Weather Roundups

Sun Oct 17, 9:04pm

Sun Oct 17, 8:04pm

Sun Oct 17, 7:04pm

Sun Oct 17, 6:04pm

Sun Oct 17, 5:04pm

Sun Oct 17, 4:04pm

Sun Oct 17, 3:04pm

Sun Oct 17, 2:04pm

Sun Oct 17, 1:04pm

Sun Oct 17, 12:04pm

Sun Oct 17, 11:04am

Sun Oct 17, 10:04am

Sun Oct 17, 9:04am

Sun Oct 17, 8:04am

Sun Oct 17, 7:04am

Sun Oct 17, 6:04am

Sun Oct 17, 5:04am

Sun Oct 17, 4:04am

Sun Oct 17, 3:04am

Sun Oct 17, 2:04am

Sun Oct 17, 1:04am

Sun Oct 17, 12:04am

Sat Oct 16, 11:04pm

Sat Oct 16, 10:04pm

Sat Oct 16, 9:04pm

Sat Oct 16, 8:04pm

Sat Oct 16, 7:04pm

Sat Oct 16, 6:04pm

Sat Oct 16, 5:04pm

Sat Oct 16, 4:04pm

Sat Oct 16, 3:04pm

Sat Oct 16, 2:04pm

Sat Oct 16, 1:04pm

Sat Oct 16, 12:04pm

Sat Oct 16, 11:04am

Sat Oct 16, 10:04am

Sat Oct 16, 9:04am

Sat Oct 16, 8:04am

Sat Oct 16, 7:04am

Sat Oct 16, 6:04am

Sat Oct 16, 5:04am

Sat Oct 16, 4:04am

Sat Oct 16, 3:04am

Sat Oct 16, 2:04am

Sat Oct 16, 1:04am

Sat Oct 16, 12:04am

Fri Oct 15, 11:04pm

Fri Oct 15, 10:04pm

Fri Oct 15, 9:04pm

Fri Oct 15, 8:04pm

Fri Oct 15, 7:04pm

Fri Oct 15, 6:04pm

Fri Oct 15, 5:04pm

Fri Oct 15, 4:04pm

Fri Oct 15, 3:04pm

Fri Oct 15, 2:05pm

Fri Oct 15, 1:05pm

Fri Oct 15, 12:04pm

Fri Oct 15, 11:05am

Fri Oct 15, 10:04am

Fri Oct 15, 9:04am

Fri Oct 15, 8:04am

Fri Oct 15, 7:04am

Fri Oct 15, 6:04am

Fri Oct 15, 5:04am

Fri Oct 15, 4:04am

Fri Oct 15, 3:05am

Fri Oct 15, 2:04am

Fri Oct 15, 1:04am

Fri Oct 15, 12:04am

Thu Oct 14, 11:04pm

Thu Oct 14, 10:04pm

Thu Oct 14, 9:04pm

Thu Oct 14, 8:04pm

Thu Oct 14, 7:04pm

Thu Oct 14, 6:04pm

Thu Oct 14, 5:04pm

Thu Oct 14, 4:04pm

Thu Oct 14, 3:04pm

Thu Oct 14, 2:04pm

Thu Oct 14, 1:04pm

Thu Oct 14, 12:04pm

Thu Oct 14, 11:04am

Thu Oct 14, 10:04am

Thu Oct 14, 9:04am

Thu Oct 14, 8:04am

Thu Oct 14, 7:04am

Thu Oct 14, 6:04am

Thu Oct 14, 5:04am

Thu Oct 14, 4:04am

Thu Oct 14, 3:04am

Thu Oct 14, 2:04am

Thu Oct 14, 1:04am

Thu Oct 14, 12:04am

Wed Oct 13, 11:04pm

Wed Oct 13, 10:04pm

Wed Oct 13, 9:04pm

Wed Oct 13, 8:04pm

Wed Oct 13, 7:04pm

Wed Oct 13, 6:04pm

Wed Oct 13, 5:04pm

Wed Oct 13, 4:04pm

Wed Oct 13, 3:04pm

Wed Oct 13, 2:04pm

Wed Oct 13, 1:04pm

Wed Oct 13, 12:04pm

Wed Oct 13, 11:04am

Wed Oct 13, 10:04am

Wed Oct 13, 9:04am

Wed Oct 13, 8:04am

Wed Oct 13, 7:04am

Wed Oct 13, 6:04am

Wed Oct 13, 5:04am

Wed Oct 13, 4:04am

Wed Oct 13, 3:04am

Wed Oct 13, 2:04am

Wed Oct 13, 1:04am

Wed Oct 13, 12:04am

Tue Oct 12, 11:04pm

Tue Oct 12, 10:04pm

Tue Oct 12, 9:04pm

Tue Oct 12, 8:04pm

Tue Oct 12, 7:04pm

Tue Oct 12, 6:04pm

Tue Oct 12, 5:04pm

Tue Oct 12, 4:04pm

Tue Oct 12, 3:04pm

Tue Oct 12, 2:04pm

Tue Oct 12, 1:04pm

Tue Oct 12, 12:04pm

Tue Oct 12, 11:05am

Tue Oct 12, 10:04am

Tue Oct 12, 9:04am

Tue Oct 12, 8:04am

Tue Oct 12, 7:04am

Tue Oct 12, 6:04am

Tue Oct 12, 5:04am

Tue Oct 12, 4:04am

Tue Oct 12, 3:04am

Tue Oct 12, 2:04am

Tue Oct 12, 1:04am

Tue Oct 12, 12:04am

Mon Oct 11, 11:04pm

Mon Oct 11, 10:04pm

Mon Oct 11, 9:04pm

Mon Oct 11, 8:04pm

Mon Oct 11, 7:04pm

Mon Oct 11, 6:04pm

Mon Oct 11, 5:04pm

Mon Oct 11, 4:04pm

Mon Oct 11, 3:04pm

Mon Oct 11, 2:04pm

Mon Oct 11, 1:04pm

Mon Oct 11, 12:04pm

Mon Oct 11, 11:04am

Mon Oct 11, 10:04am

Mon Oct 11, 9:04am

Mon Oct 11, 8:04am

Mon Oct 11, 7:04am

Mon Oct 11, 6:04am

Mon Oct 11, 5:04am

Mon Oct 11, 4:04am

Mon Oct 11, 3:04am

Mon Oct 11, 2:04am

Mon Oct 11, 1:04am

Mon Oct 11, 12:05am

Sun Oct 10, 11:04pm

Meta data:

ID: 9baac035-5cae-41bc-ae05-5a90eb113118
Link: https://api.weather.gov/products/9baac035-5cae-41bc-ae05-5a90eb113118